Location: Ravensburg
(47.7866°N, 9.6124°E)
Time: 09:55:21
(UTC+02:00)

YUBILEINY - Pass Details

Date: 23 March 2026
Orbit: 1477 x 1509 km, 82.5° (Epoch: 17 April)

Event Time Altitude Azimuth Distance (km) Brightness Sun altitude
Rises 03:07:47 0° 349° (NNW) 4,617 ? -30.2°
Reaches altitude 10° 03:10:41 10° 348° (NNW) 3,631 ? -29.8°
Maximum altitude 03:19:21 75° 265° (W) 1,527 ? -28.7°
Enters shadow 03:22:15 47° 193° (SSW) 1,885 ? -28.3°
